Location: Nitra
(0.0000°N, 18.0833°E)
Time: 21:25:48
(UTC+02:00)

A-11 Canister half - Pass Details

Date: 01 April 2023
Orbit: 1526 x 1682 km, 47.3° (Epoch: 08 June)

Event Time Altitude Azimuth Distance (km) Brightness Sun altitude
Rises 13:52:06 0° 252° (WSW) 4,896 11.8 74.2°
Reaches altitude 10° 13:56:16 10° 267° (W) 3,922 11.5 73.2°
Maximum altitude 14:03:24 22° 313° (NW) 3,102 11.2 71.5°
Drops below altitude 10° 14:10:36 10° 359° (N) 3,930 11.4 69.8°
Sets 14:14:52 0° 14° (NNE) 4,907 11.6 68.7°
